[[{"header":{"parameterUnit":"m.s-1","parameterCategory":1,"la1":30.2992,"la2":30.254,"lo1":-89.0895,"lo2":-89.0443,"dy":0.0025,"dx":0.0025,"nx":19,"ny":19,"refTime":"2026-05-15T03:00:00:Z","depth":0,"parameterNumber":2,"parameterNumberName":"U-component_of_WINDS"},"data":[0,0,0,-1.2223,-1.2224,-1.2285,-1.2285,-1.2362,-1.2362,0,0,0,0,0,0,0,0,0,0,0,-1.2204,-1.2204,-1.2223,-1.2225,-1.2285,-1.2285,-1.2361,-1.2362,0,0,0,0,0,0,0,0,0,0,0,-1.2203,-1.2204,-1.2204,-1.2225,-1.2285,-1.2285,-1.2361,-1.2316,0,0,0,0,0,0,0,0,0,0,-1.2258,-1.2238,-1.2204,-1.2204,-1.2225,-1.2285,-1.2285,-1.2314,-1.2319,-1.2333,0,-1.2345,0,-1.2355,-1.2367,-1.2367,0,0,0,-1.2226,-1.2234,-1.2251,-1.2205,-1.2226,-1.2285,-1.2258,-1.2317,-1.2323,-1.234,-1.2346,-1.2349,-1.2356,-1.2368,-1.2368,-1.2443,-1.2443,0,0,-1.2223,-1.2214,-1.2247,-1.2255,-1.2244,-1.2256,-1.226,-1.232,-1.2326,-1.2346,-1.235,-1.2357,-1.2368,-1.2369,-1.2443,-1.2443,0,0,0,-1.2212,-1.2211,-1.2228,-1.2252,-1.2263,-1.2258,-1.2262,-1.2324,-1.233,-1.2351,-1.2358,-1.2369,-1.2369,-1.2442,-1.2443,-1.2447,0,0,0,-1.221,-1.2205,-1.2226,-1.2221,-1.2261,-1.2294,-1.2264,-1.2326,-1.2333,-1.2358,-1.2369,-1.237,-1.2442,-1.2443,-1.2446,-1.2451,0,0,0,-1.22,-1.2204,-1.2212,-1.2221,-1.2246,-1.2293,-1.2302,-1.2327,-1.2337,-1.2367,-1.237,-1.2442,-1.2442,-1.2446,-1.245,-1.2468,0,0,0,-1.2187,-1.2215,-1.2212,-1.2246,-1.2246,-1.2295,-1.2302,-1.234,-1.2366,-1.2369,-1.2442,-1.2443,-1.2445,-1.2449,-1.2467,-1.2482,-1.2487,0,0,-1.2218,-1.2219,-1.224,-1.2238,-1.2286,-1.2286,-1.2335,-1.2369,-1.238,-1.2422,-1.2424,-1.2447,-1.245,-1.2468,-1.2518,-1.2522,0,0,0,-1.2246,-1.2261,-1.2276,-1.23,-1.2326,-1.2349,-1.2376,-1.2389,-1.2424,-1.2399,-1.2458,-1.2461,-1.2472,-1.2479,-1.2482,-1.2493,-1.2446,-1.2446,-1.2445,-1.2276,-1.2289,-1.2325,-1.2345,-1.2369,-1.2397,-1.2418,-1.244,-1.2446,-1.246,-1.2473,-1.2501,-1.251,-1.2512,-1.2523,-1.2481,-1.2481,-1.2481,-1.2481,-1.2322,-1.2346,-1.2353,-1.2391,-1.2405,-1.2437,-1.2465,-1.2468,-1.2501,-1.2493,-1.2504,-1.2494,-1.2516,-1.2526,-1.2482,-1.2482,-1.2482,-1.2482,-1.2482,-1.2344,-1.2357,-1.2372,-1.2409,-1.2436,-1.2457,-1.2487,-1.2499,-1.2511,-1.2521,-1.2536,-1.2536,-1.2537,-1.2527,-1.2527,-1.2527,-1.2527,-1.2527,-1.2528,-1.236,-1.2376,-1.24,-1.243,-1.2448,-1.2473,-1.2501,-1.2519,-1.2543,-1.2549,-1.2549,-1.2555,-1.2516,-1.2506,-1.2529,-1.2529,-1.2529,-1.2529,-1.2528,-1.2403,-1.2395,-1.2432,-1.2449,-1.2486,-1.2513,-1.2527,-1.2563,-1.258,-1.2595,-1.2599,-1.2568,-1.257,-1.2567,-1.2559,-1.2595,-1.2595,-1.2595,-1.2595,-1.2421,-1.2423,-1.2463,-1.2491,-1.2519,-1.2536,-1.2579,-1.2601,-1.2624,-1.2635,-1.2632,-1.2622,-1.2619,-1.2623,-1.2619,-1.2612,-1.2661,-1.2661,-1.2661,-1.2448,-1.2454,-1.2487,-1.2507,-1.2537,-1.2562,-1.2603,-1.2635,-1.2659,-1.2664,-1.2645,-1.2642,-1.2626,-1.2621,-1.2625,-1.2618,-1.2605,0,0]},{"header":{"parameterUnit":"m.s-1","parameterCategory":1,"la1":30.2992,"la2":30.254,"lo1":-89.0895,"lo2":-89.0443,"dy":0.0025,"dx":0.0025,"nx":19,"ny":19,"refTime":"2026-05-15T03:00:00:Z","depth":0,"parameterNumber":3,"parameterNumberName":"V-component_of_WINDS"},"data":[0,0,0,2.8874,2.8877,2.9015,2.9015,2.9178,2.9179,0,0,0,0,0,0,0,0,0,0,0,2.8827,2.8828,2.8874,2.8877,2.9014,2.9015,2.9177,2.9179,0,0,0,0,0,0,0,0,0,0,0,2.8826,2.8827,2.8829,2.8877,2.9014,2.9015,2.9177,2.9077,0,0,0,0,0,0,0,0,0,0,2.8946,2.8897,2.8827,2.8829,2.8878,2.9014,2.9015,2.9073,2.9084,2.911,0,2.9133,0,2.9159,2.9189,2.919,0,0,0,2.8881,2.8888,2.8931,2.8829,2.8879,2.9014,2.8954,2.9079,2.9091,2.9124,2.9136,2.9142,2.9162,2.919,2.9191,2.9331,2.9332,0,0,2.8873,2.8848,2.8922,2.8938,2.8919,2.8949,2.8958,2.9087,2.9097,2.9137,2.9146,2.9164,2.9191,2.9192,2.9331,2.9332,0,0,0,2.8849,2.8842,2.8882,2.8931,2.8957,2.8953,2.8963,2.9091,2.9107,2.9148,2.9166,2.9192,2.9194,2.9331,2.9331,2.9328,0,0,0,2.8844,2.8828,2.8879,2.8865,2.8955,2.9027,2.8965,2.9098,2.9113,2.9165,2.9192,2.9195,2.933,2.9331,2.9327,2.933,0,0,0,2.882,2.8825,2.8843,2.8863,2.8922,2.9025,2.9048,2.9102,2.9124,2.919,2.9196,2.933,2.9331,2.9326,2.9329,2.9358,0,0,0,2.8786,2.884,2.8843,2.8909,2.892,2.9023,2.9047,2.9125,2.9182,2.9193,2.933,2.9331,2.9326,2.9328,2.9356,2.9376,2.9382,0,0,2.8839,2.8845,2.8886,2.8893,2.8989,2.9004,2.9099,2.9175,2.9204,2.9287,2.9291,2.9327,2.9329,2.9357,2.9431,2.9435,0,0,0,2.8894,2.8923,2.8954,2.9007,2.9066,2.9116,2.918,2.9208,2.9279,2.9242,2.9348,2.9349,2.9367,2.9377,2.9381,2.9397,2.9336,2.9336,2.9335,2.8931,2.8966,2.9035,2.9086,2.9137,2.9201,2.9245,2.9293,2.9314,2.9338,2.9362,2.9402,2.9413,2.9416,2.9432,2.9377,2.9377,2.9377,2.9377,2.9009,2.9054,2.908,2.9156,2.9191,2.9255,2.9319,2.9331,2.9394,2.9387,2.9405,2.9392,2.942,2.9436,2.9377,2.9377,2.9377,2.9377,2.9377,2.9035,2.9062,2.9096,2.9174,2.923,2.928,2.9339,2.937,2.94,2.9417,2.9444,2.9444,2.9446,2.9428,2.9429,2.9429,2.9429,2.9429,2.9429,2.9047,2.9085,2.9131,2.9198,2.9235,2.9287,2.9352,2.9389,2.9437,2.9455,2.9455,2.9471,2.9418,2.9402,2.9431,2.9431,2.9431,2.943,2.943,2.9108,2.9099,2.917,2.9207,2.9287,2.9339,2.9379,2.945,2.9485,2.9512,2.9526,2.9483,2.949,2.9487,2.9474,2.952,2.952,2.952,2.952,2.9127,2.9135,2.9214,2.927,2.9329,2.9372,2.9448,2.9499,2.9549,2.9573,2.9571,2.9558,2.9553,2.9563,2.9559,2.9547,2.961,2.961,2.961,2.9166,2.918,2.924,2.929,2.9354,2.9408,2.948,2.9542,2.9598,2.9615,2.9591,2.9587,2.9565,2.9557,2.957,2.9562,2.9541,0,0]}]]